Weather History for KLND - November, 2012

Change the Weather History Date:

Friday, November 9, 2012

  Actual Average Record
Temperature  
Mean Temperature 41 °F 35 °F  
Max Temperature 55 °F 47 °F 67 °F (2014)
Min Temperature 26 °F 23 °F -11 °F (1950)
Degree Days  
Heating Degree Days 24 30  
Month to date heating degree days 162 251  
Since 1 July heating degree days 851 1112  
Cooling Degree Days 0 0  
Month to date cooling degree days 0 0  
Year to date cooling degree days 779 472  
Moisture  
Dew Point 29 °F    
Average Humidity 68    
Maximum Humidity 100    
Minimum Humidity 35    
Precipitation  
Precipitation 0.33 in 0.03 in 0.70 in (1978)
Month to date precipitation 0.33 0.29  
Year to date precipitation 6.04 11.51  
Snow  
Snow 2.10 in 0.50 in - ()
Month to date snowfall 2.1 3.7  
Since 1 July snowfall 7.7 16.2  
Since 1 September snowfall 7.7 16.2  
Snow Depth 2.00 in    
Sea Level Pressure  
Sea Level Pressure 29.51 in    
Wind  
Wind Speed 15 mph (NW)    
Max Wind Speed 43 mph    
Max Gust Speed 53 mph    
Visibility 4 miles    
Events Fog , Rain , Snow    
T = Trace of Precipitation, MM = Missing Value Source: NWS Daily Summary

Daily Weather History Graph

Daily Weather History Graph

Search for Another Location

Airport or City:

Trip Planner

Search our weather history database for the weather conditions in past years. The results will help you decide how hot, cold, wet, or windy it might be!

Date:

Astronomy

Nov. 09, 2012 Rise Set
Actual Time 6:59 AM MST 4:57 PM MST
Civil Twilight 6:29 AM MST 5:27 PM MST
Nautical Twilight 5:55 AM MST 6:01 PM MST
Astronomical Twilight 5:22 AM MST 6:34 PM MST
Moon 1:55 AM MST (11/9) 2:17 PM MST (11/9)
Length of Visible Light 10h 57m
Length of Day
9h 57m
Waning Crescent, 22% of the Moon is Illuminated
Nov 9
Waning Crescent
Nov 13
New
Nov 20
First Quarter
Nov 28
Full
Dec 6
Last Quarter

Hourly Weather History & Observations

Time (MST) Temp. Windchill Dew Point Humidity Pressure Visibility Wind Dir Wind Speed Gust Speed Precip Events Conditions
12:53 AM 35.1 °F - 24.1 °F 64% 29.55 in 10.0 mi Calm Calm - N/A   Clear
1:53 AM 34.0 °F 28.8 °F 24.1 °F 67% 29.52 in 10.0 mi North 5.8 mph - N/A   Clear
2:53 AM 33.1 °F 27.7 °F 23.0 °F 66% 29.52 in 10.0 mi Variable 5.8 mph - N/A   Clear
3:53 AM 51.1 °F - 24.1 °F 35% 29.43 in 10.0 mi SSW 18.4 mph 27.6 mph N/A   Clear
4:53 AM 52.0 °F - 26.1 °F 37% 29.43 in 10.0 mi SSW 31.1 mph 42.6 mph N/A   Clear
5:53 AM 52.0 °F - 27.0 °F 38% 29.44 in 10.0 mi SSW 31.1 mph 41.4 mph N/A   Clear
6:53 AM 51.1 °F - 27.0 °F 39% 29.43 in 10.0 mi SSW 32.2 mph 40.3 mph N/A   Clear
7:53 AM 52.0 °F - 28.9 °F 41% 29.44 in 10.0 mi SSW 27.6 mph 36.8 mph N/A   Clear
8:53 AM 52.0 °F - 30.0 °F 43% 29.42 in 10.0 mi SSW 35.7 mph 47.2 mph N/A   Clear
9:53 AM 53.1 °F - 32.0 °F 45% 29.39 in 10.0 mi South 42.6 mph 52.9 mph N/A   Clear
10:38 AM 48.2 °F - 37.4 °F 66% 29.48 in 6.0 mi SSW 35.7 mph 46.0 mph 0.00 in Rain Light Rain
10:53 AM 46.9 °F - 39.9 °F 77% 29.46 in 4.0 mi SSW 31.1 mph 47.2 mph 0.00 in Rain Light Rain
11:53 AM 48.0 °F - 37.9 °F 68% 29.46 in 10.0 mi Calm Calm - 0.02 in   Mostly Cloudy
12:53 PM 46.0 °F 41.4 °F 34.0 °F 63% 29.44 in 10.0 mi North 9.2 mph - 0.00 in   Overcast
1:53 PM 39.9 °F 32.1 °F 34.0 °F 79% 29.49 in 6.0 mi NNE 13.8 mph - 0.01 in Rain Light Rain
2:53 PM 36.0 °F 27.5 °F 32.0 °F 86% 29.52 in 4.0 mi NW 12.7 mph - 0.02 in Rain Light Rain
3:30 PM 33.8 °F 27.7 °F 30.2 °F 87% 29.53 in 3.0 mi North 6.9 mph - 0.01 in Rain Light Rain
3:40 PM 33.8 °F 30.8 °F 30.2 °F 87% 29.53 in 3.0 mi Variable 3.5 mph - 0.03 in Rain Light Rain
3:53 PM 34.0 °F 28.0 °F 30.9 °F 89% 29.47 in 5.0 mi NW 6.9 mph - 0.04 in Snow Light Snow
4:53 PM 33.1 °F - 30.0 °F 89% 29.47 in 4.0 mi Calm Calm - 0.02 in Snow Light Snow
5:04 PM 32.0 °F 28.7 °F 30.2 °F 93% 29.52 in 3.0 mi NNW 3.5 mph - 0.01 in Snow Light Snow
5:16 PM 32.0 °F 27.5 °F 30.2 °F 93% 29.52 in 1.8 mi NNW 4.6 mph - 0.02 in Snow Light Snow
5:25 PM 32.0 °F 26.4 °F 30.2 °F 93% 29.52 in 1.0 mi NNW 5.8 mph - 0.03 in Snow Light Snow
5:35 PM 32.0 °F 27.5 °F 30.2 °F 93% 29.53 in 0.5 mi NW 4.6 mph - 0.05 in Fog , Snow Snow
5:53 PM 30.9 °F 23.5 °F 30.0 °F 96% 29.49 in 0.5 mi NNW 8.1 mph - 0.09 in Fog , Snow Snow
6:06 PM 30.2 °F 23.4 °F 30.2 °F 100% 29.53 in 1.0 mi NNW 6.9 mph - 0.01 in Snow Light Snow
6:20 PM 30.2 °F 22.6 °F 30.2 °F 100% 29.54 in 3.0 mi NNW 8.1 mph - 0.02 in Snow Light Snow
6:45 PM 30.2 °F 21.9 °F 30.2 °F 100% 29.55 in 2.5 mi NW 9.2 mph - 0.02 in Snow Light Snow
6:53 PM 30.9 °F 23.5 °F 28.9 °F 92% 29.52 in 2.0 mi NNW 8.1 mph - 0.02 in Snow Light Snow
7:06 PM 30.2 °F 21.9 °F 28.4 °F 93% 29.55 in 1.5 mi NNW 9.2 mph - 0.01 in Snow Light Snow
7:53 PM 28.9 °F 22.8 °F 28.0 °F 96% 29.52 in 2.5 mi NNW 5.8 mph - 0.02 in Snow Light Snow
8:15 PM 28.4 °F 20.4 °F 26.6 °F 93% 29.56 in 1.2 mi NNW 8.1 mph - 0.00 in Snow Light Snow
8:48 PM 28.4 °F 20.4 °F 26.6 °F 93% 29.55 in 1.0 mi NW 8.1 mph - 0.02 in Snow Light Snow
8:53 PM 28.0 °F 20.0 °F 26.1 °F 92% 29.53 in 1.0 mi NW 8.1 mph - 0.02 in Snow Light Snow
9:46 PM 26.6 °F 19.1 °F 26.6 °F 100% 29.57 in 0.5 mi NNW 6.9 mph - 0.02 in Fog , Snow Snow
9:53 PM 27.0 °F 20.5 °F 25.0 °F 92% 29.55 in 0.5 mi NNW 5.8 mph - 0.03 in Fog , Snow Snow
10:16 PM 26.6 °F 21.2 °F 26.6 °F 100% 29.57 in 0.8 mi NW 4.6 mph - 0.01 in Snow Light Snow
10:28 PM 26.6 °F 20.0 °F 24.8 °F 93% 29.56 in 1.2 mi North 5.8 mph - 0.01 in Snow Light Snow
10:53 PM 27.0 °F - 25.0 °F 92% 29.59 in 1.0 mi Calm Calm - 0.02 in Snow Light Snow
11:00 PM 26.6 °F 21.2 °F 24.8 °F 93% 29.58 in 1.0 mi NNE 4.6 mph - 0.00 in Snow Light Snow
11:45 PM 26.6 °F 21.2 °F 24.8 °F 93% 29.58 in 0.8 mi ENE 4.6 mph - 0.01 in Snow Light Snow
11:53 PM 26.1 °F 19.4 °F 24.1 °F 92% 29.56 in 0.8 mi ENE 5.8 mph - 0.02 in Snow Light Snow